Weather History for Boonville, MO

Change the Weather History Date:

Thursday, March 6, 2014

  Actual Average Record
Temperature  
Mean Temperature 37 °F -  
Max Temperature 49 °F 47 °F 82 °F (1956)
Min Temperature 25 °F 28 °F -7 °F (1960)
Degree Days  
Heating Degree Days 28    
Moisture  
Dew Point 23 °F    
Average Humidity 60    
Maximum Humidity 92    
Minimum Humidity 34    
Precipitation  
Precipitation 0.00 in - - ()
Sea Level Pressure  
Sea Level Pressure 30.16 in    
Wind  
Wind Speed 6 mph (ESE)    
Max Wind Speed 12 mph    
Max Gust Speed -    
Visibility 9 miles    
Events      
Averages and records for this station are not official NWS values.
T = Trace of Precipitation, MM = Missing Value Source: NWS Daily Summary

Daily Weather History Graph

Daily Weather History Graph

Search for Another Location

Airport:

Trip Planner

Search our weather history database for the weather conditions in past years. The results will help you decide how hot, cold, wet, or windy it might be!

Date:

Astronomy

Mar. 06, 2014 Rise Set
Actual Time 6:35 AM CST 6:08 PM CST
Civil Twilight 6:09 AM CST 6:35 PM CST
Nautical Twilight 5:38 AM CST 7:06 PM CST
Astronomical Twilight 5:07 AM CST 7:37 PM CST
Moon 9:47 AM CST (3/6) No Moon Set
Length of Visible Light 12h 26m
Length of Day
11h 32m
Waxing Crescent, 32% of the Moon is Illuminated
Mar 6
Waxing Crescent
Mar 8
First Quarter
Mar 16
Full
Mar 23
Last Quarter
Mar 30
New

Hourly Weather History & Observations

Time (CST) Temp. Windchill Dew Point Humidity Pressure Visibility Wind Dir Wind Speed Gust Speed Precip Events Conditions
12:15 AM 31.8 °F 22.8 °F 21.9 °F 67% 30.28 in 10.0 mi East 11.5 mph - N/A   Overcast
12:35 AM 31.6 °F 23.7 °F 21.9 °F 67% 30.27 in 10.0 mi East 9.2 mph - N/A   Overcast
12:55 AM 31.6 °F 23.7 °F 22.1 °F 68% 30.27 in 10.0 mi East 9.2 mph - N/A   Overcast
1:15 AM 31.1 °F 23.1 °F 22.1 °F 69% 30.27 in 10.0 mi East 9.2 mph - N/A   Overcast
1:35 AM 31.1 °F 24.5 °F 22.1 °F 69% 30.27 in 10.0 mi East 6.9 mph - N/A   Overcast
1:55 AM 30.7 °F 22.6 °F 22.3 °F 71% 30.26 in 10.0 mi ENE 9.2 mph - N/A   Overcast
2:15 AM 30.4 °F 23.6 °F 22.3 °F 72% 30.25 in 10.0 mi East 6.9 mph - N/A   Mostly Cloudy
2:35 AM 30.2 °F 24.3 °F 22.6 °F 73% 30.25 in 10.0 mi ENE 5.8 mph - N/A   Scattered Clouds
2:55 AM 29.7 °F 24.7 °F 22.5 °F 75% 30.25 in 10.0 mi NNE 4.6 mph - N/A   Mostly Cloudy
3:15 AM 28.6 °F 21.5 °F 22.5 °F 78% 30.25 in 10.0 mi ENE 6.9 mph - N/A   Mostly Cloudy
3:35 AM 28.0 °F 22.8 °F 22.3 °F 79% 30.24 in 10.0 mi ENE 4.6 mph - N/A   Scattered Clouds
3:55 AM 27.5 °F 22.2 °F 22.1 °F 80% 30.24 in 7.0 mi ENE 4.6 mph - N/A   Clear
4:15 AM 27.0 °F 23.0 °F 21.9 °F 81% 30.24 in 7.0 mi NE 3.5 mph - N/A   Clear
4:35 AM 26.4 °F 20.9 °F 21.7 °F 82% 30.25 in 7.0 mi NNE 4.6 mph - N/A   Clear
4:55 AM 26.1 °F 20.5 °F 21.9 °F 84% 30.24 in 7.0 mi NE 4.6 mph - N/A   Clear
5:15 AM 25.5 °F 18.7 °F 22.1 °F 87% 30.24 in 7.0 mi NE 5.8 mph - N/A   Clear
5:35 AM 25.5 °F 19.9 °F 22.5 °F 88% 30.25 in 7.0 mi NNE 4.6 mph - N/A   Scattered Clouds
5:55 AM 25.9 °F 19.2 °F 23.2 °F 90% 30.26 in 7.0 mi NNE 5.8 mph - N/A   Mostly Cloudy
6:15 AM 26.4 °F 19.8 °F 23.4 °F 88% 30.26 in 7.0 mi NE 5.8 mph - N/A   Overcast
6:35 AM 25.7 °F 20.1 °F 22.8 °F 89% 30.27 in 5.0 mi NNE 4.6 mph - N/A   Scattered Clouds
6:55 AM 25.3 °F 19.7 °F 23.2 °F 91% 30.27 in 5.0 mi NE 4.6 mph - N/A   Clear
7:15 AM 25.5 °F 19.9 °F 23.5 °F 92% 30.27 in 5.0 mi NE 4.6 mph - N/A   Clear
7:35 AM 26.4 °F 20.9 °F 23.7 °F 90% 30.26 in 5.0 mi ENE 4.6 mph - N/A   Clear
7:55 AM 27.7 °F 21.3 °F 23.9 °F 86% 30.27 in 5.0 mi East 5.8 mph - N/A   Clear
8:15 AM 28.9 °F 21.9 °F 23.9 °F 81% 30.26 in 5.0 mi East 6.9 mph - N/A   Haze
8:35 AM 29.8 °F 23.0 °F 23.7 °F 78% 30.26 in 7.0 mi East 6.9 mph - N/A   Clear
8:55 AM 31.1 °F 24.5 °F 23.7 °F 74% 30.25 in 7.0 mi East 6.9 mph - N/A   Clear
9:15 AM 32.0 °F 25.6 °F 23.5 °F 71% 30.26 in 7.0 mi SE 6.9 mph - N/A   Clear
9:35 AM 32.7 °F 28.3 °F 23.2 °F 68% 30.26 in 7.0 mi ESE 4.6 mph - N/A   Clear
9:55 AM 33.8 °F 27.7 °F 23.2 °F 65% 30.25 in 7.0 mi ESE 6.9 mph - N/A   Clear
10:15 AM 35.2 °F 32.4 °F 23.4 °F 62% 30.24 in 7.0 mi SSE 3.5 mph - N/A   Clear
10:35 AM 37.0 °F 33.3 °F 23.5 °F 58% 30.24 in 10.0 mi East 4.6 mph - N/A   Clear
10:55 AM 38.1 °F 33.7 °F 23.4 °F 55% 30.23 in 10.0 mi ESE 5.8 mph - N/A   Clear
11:15 AM 39.2 °F - 23.0 °F 52% 30.23 in 10.0 mi Calm Calm - N/A   Clear
11:35 AM 40.5 °F - 22.6 °F 49% 30.22 in 10.0 mi Calm Calm - N/A   Clear
11:55 AM 42.1 °F - 22.5 °F 46% 30.22 in 10.0 mi Calm Calm - N/A   Clear
12:15 PM 42.6 °F 39.9 °F 21.9 °F 44% 30.20 in 10.0 mi East 4.6 mph - N/A   Clear
12:35 PM 43.9 °F 42.3 °F 21.9 °F 42% 30.19 in 10.0 mi NE 3.5 mph - N/A   Clear
12:55 PM 44.4 °F 42.9 °F 22.1 °F 41% 30.18 in 10.0 mi ESE 3.5 mph - N/A   Clear
1:15 PM 45.0 °F 43.5 °F 22.3 °F 41% 30.16 in 10.0 mi ENE 3.5 mph - N/A   Clear
1:35 PM 46.0 °F - 22.8 °F 40% 30.15 in 10.0 mi Calm Calm - N/A   Clear
1:55 PM 46.9 °F - 22.5 °F 38% 30.13 in 10.0 mi South 5.8 mph - N/A   Clear
2:15 PM 47.7 °F - 21.6 °F 36% 30.12 in 10.0 mi Calm Calm - N/A   Clear
2:35 PM 47.8 °F - 21.4 °F 35% 30.12 in 10.0 mi Calm Calm - N/A   Clear
2:55 PM 48.7 °F - 21.6 °F 34% 30.11 in 10.0 mi Calm Calm - N/A   Clear
3:15 PM 49.3 °F - 21.7 °F 34% 30.11 in 10.0 mi WSW 3.5 mph - N/A   Clear
3:35 PM 49.1 °F - 21.6 °F 34% 30.10 in 10.0 mi Calm Calm - N/A   Clear
3:55 PM 49.1 °F - 21.6 °F 34% 30.09 in 10.0 mi SW 3.5 mph - N/A   Clear
4:15 PM 49.3 °F - 21.9 °F 34% 30.08 in 10.0 mi SW 5.8 mph - N/A   Clear
4:35 PM 49.1 °F - 21.9 °F 34% 30.08 in 10.0 mi WSW 3.5 mph - N/A   Clear
4:55 PM 49.1 °F - 21.6 °F 34% 30.08 in 10.0 mi South 4.6 mph - N/A   Clear
5:15 PM 48.6 °F - 21.6 °F 35% 30.07 in 10.0 mi South 4.6 mph - N/A   Clear
5:35 PM 47.8 °F - 21.6 °F 35% 30.07 in 10.0 mi Calm Calm - N/A   Clear
5:55 PM 46.2 °F 45.0 °F 21.9 °F 38% 30.06 in 10.0 mi SE 3.5 mph - N/A   Clear
6:15 PM 45.3 °F 43.0 °F 21.2 °F 38% 30.05 in 10.0 mi SE 4.6 mph - N/A   Clear
6:35 PM 44.8 °F 42.4 °F 21.4 °F 40% 30.05 in 10.0 mi SE 4.6 mph - N/A   Clear
6:55 PM 43.2 °F 40.5 °F 21.7 °F 43% 30.05 in 10.0 mi SE 4.6 mph - N/A   Clear
7:15 PM 42.6 °F 39.0 °F 21.7 °F 44% 30.04 in 10.0 mi SE 5.8 mph - N/A   Clear
7:35 PM 41.4 °F 37.6 °F 21.9 °F 46% 30.04 in 10.0 mi ESE 5.8 mph - N/A   Clear
7:55 PM 40.3 °F 35.5 °F 21.9 °F 48% 30.03 in 10.0 mi SE 6.9 mph - N/A   Clear
8:15 PM 38.8 °F 32.6 °F 22.3 °F 51% 30.03 in 10.0 mi SE 9.2 mph - N/A   Clear
8:35 PM 38.1 °F 32.9 °F 22.6 °F 54% 30.03 in 10.0 mi SE 6.9 mph - N/A   Clear
8:55 PM 37.4 °F 32.8 °F 22.8 °F 56% 30.04 in 10.0 mi SE 5.8 mph - N/A   Clear
9:15 PM 36.5 °F 31.8 °F 22.8 °F 58% 30.03 in 10.0 mi SE 5.8 mph - N/A   Clear
9:35 PM 36.1 °F 31.4 °F 23.4 °F 60% 30.03 in 10.0 mi SE 5.8 mph - N/A   Clear
9:55 PM 36.0 °F 31.1 °F 23.0 °F 59% 30.03 in 10.0 mi SE 5.8 mph - N/A   Clear
10:15 PM 35.8 °F 30.1 °F 23.4 °F 61% 30.03 in 10.0 mi SE 6.9 mph - N/A   Clear
10:35 PM 35.4 °F 29.7 °F 23.5 °F 62% 30.03 in 10.0 mi SE 6.9 mph - N/A   Clear
10:55 PM 35.2 °F 30.3 °F 23.5 °F 62% 30.03 in 10.0 mi SSE 5.8 mph - N/A   Clear
11:15 PM 34.7 °F 29.6 °F 23.2 °F 63% 30.03 in 10.0 mi SSE 5.8 mph - N/A   Clear
11:35 PM 34.2 °F 28.2 °F 23.4 °F 65% 30.02 in 10.0 mi SE 6.9 mph - N/A   Clear
11:55 PM 34.2 °F 29.0 °F 23.5 °F 65% 30.02 in 10.0 mi SE 5.8 mph - N/A   Clear